This demonstration page uses our WeatherBlox Daily Observations layout. Learn more.

Left ArrowRight Arrow

44.31136, -96.79839

Hourly Observations for March 18, 2017

Temp ( °F °C ) Dew Point ( °F °C ) Humidity (%) Winds ( mph kmh ) Pressure ( in mb ) Visibility ( mi km ) Precip ( " mm )
12:56 am 00:56 Clear 30 -1.1 25 -3.9 82 82 NNW 16 26 30.35 1028 10 16 0.00 0.00
1:56 am 01:56 Clear 29 -1.7 24 -4.4 82 82 NNW 13 20 30.36 1028 10 16 0.00 0.00
2:56 am 02:56 Clear 27 -2.8 23 -5 85 85 NW 12 19 30.38 1029 10 16 0.00 0.00
3:56 am 03:56 Clear 27 -2.8 23 -5 85 85 N 12 19 30.38 1029 10 16 0.00 0.00
4:56 am 04:56 Clear 26 -3.3 22 -5.6 84 84 NNW 9 15 30.39 1029 10 16 0.00 0.00
5:56 am 05:56 Clear 24 -4.4 21 -6.1 88 88 NNW 10 17 30.41 1030 10 16 0.00 0.00
6:56 am 06:56 Clear 23 -5 21 -6.1 92 92 NNW 7 11 30.42 1030 10 16 0.00 0.00
7:56 am 07:56 Sunny 21 -6.1 19 -7.2 92 92 N 6 9 N/A 10 16 0.00 0.00
8:56 am 08:56 Sunny 26 -3.3 22 -5.6 84 84 NW 8 13 30.44 1031 10 16 0.00 0.00
9:56 am 09:56 Sunny 29 -1.7 23 -5 78 78 NNW 8 13 30.45 1031 10 16 0.00 0.00
10:56 am 10:56 Sunny 33 0.6 24 -4.4 70 70 N 9 15 30.43 1031 10 16 0.00 0.00
11:56 am 11:56 Mostly Sunny 35 1.7 24 -4.4 64 64 ENE 6 9 30.42 1030 10 16 0.00 0.00
12:56 pm 12:56 Partly Cloudy 38 3.3 22 -5.6 52 52 Calm 30.40 1030 10 16 0.00 0.00
1:56 pm 13:56 Mostly Sunny 41 5 21 -6.1 45 45 Calm 30.38 1029 10 16 0.00 0.00
2:44 pm 14:44 Mostly Sunny 43 6 21 -6 42 42 Calm 30.30 1026 10 16 0.00 0.00
2:56 pm 14:56 Sunny 43 6.1 22 -5.6 43 43 ESE 5 7 30.36 1028 10 16 0.00 0.00
3:56 pm 15:56 Sunny 46 7.8 20 -6.7 35 35 S 6 9 30.33 1027 10 16 0.00 0.00
4:56 pm 16:56 Sunny 46 7.8 24 -4.4 42 42 SSE 7 11 30.31 1026 10 16 0.00 0.00
5:56 pm 17:56 Sunny 47 8.3 27 -2.8 46 46 SSE 8 13 30.29 1026 10 16 0.00 0.00
6:56 pm 18:56 Sunny 45 7.2 25 -3.9 46 46 SSE 9 15 30.29 1026 10 16 0.00 0.00
7:56 pm 19:56 Clear 41 5 27 -2.8 57 57 SSE 10 17 30.29 1026 10 16 0.00 0.00
8:56 pm 20:56 Clear 39 3.9 28 -2.2 65 65 SE 10 17 30.28 1025 10 16 0.00 0.00
9:56 pm 21:56 Clear 37 2.8 28 -2.2 70 70 SE 14 22 30.26 1025 10 16 0.00 0.00
10:56 pm 22:56 Clear 38 3.3 28 -2.2 68 68 SE 15 24 30.23 1024 10 16 0.00 0.00
11:56 pm 23:56 Clear 37 2.8 29 -1.7 73 73 SE 17 28 30.21 1023 10 16 0.00 0.00

Powered by AerisWeather